TIROS 5

Satellite information

Favourite Embed

Satellite Type and Status

PAYLOADIN ORBIT

Key statistics

Satellite TIROS 5 at a glance.

Uptime

23084

Days in orbit

Revolutions

≈ 14.6

Per day

Orbit

LEO

Low Earth Orbit

Inclination

58.1

Latest

Satellite identification and parameters

Extended collection of information and parameters for TIROS 5.

Object identification

Identified? True

Debris? False

Object name: TIROS 5

International designator: 1962-025A

Object number (NORAD): 309

Object ID (CCSDS): 309

Country: UNITED STATES OF AMERICA (US)

Current information (Y/N): Y

RCS size: MEDIUM

Orbital parameters

Period: 98.62 minutes

Inclination: 58.0896 deg

SMA: 7070.838 km

Apoapsis: 820.104 km

Periapsis: 565.301 km

RAAN: 207.4978 deg

Eccentricy: 0.01801784

Argument of periapsis: 224.1461 deg

Mean anomaly: 134.507 deg

Mean motion: 14.60146585 rev/day

Mean motion (dot): 0.00000458 rev/day2

B* drag term: 0.00011007848 1/REarth

Two-line elements (TLE)

Creation date: Aug. 31, 2025, 2:26 a.m.

Reference frame: TEME

Reference center: EARTH

Epoch: Aug. 30, 2025, 3 p.m. UTC

TLE line 0: 0 TIROS 5

TLE line 1: 1 00309U 62025A 25242.62501251 .00000458 00000-0 11008-3 0 9994

TLE line 2: 2 00309 58.0896 207.4978 0180178 224.1461 134.5070 14.60146585339388

Live tracking on map

Real-time ground track for satellite TIROS 5.

In-orbit conjunctions

A list of the most updated potential collisions computed for object TIROS 5.

Target Orbit TCA Probability of collision Miss distance Type
CZ-2D DEB SSO 2025-05-29 19:10:32 0.000254684 454.0 (m) DEBRIS
CZ-6A DEB LEO 2024-11-23 12:43:47 0.0002952953 715.0 (m) DEBRIS
CZ-6A DEB LEO 2024-11-05 03:42:12 0.002193468 548.0 (m) DEBRIS

Associated space launch

NASA's TIROS (Television & Infra-Red Observation Satellite) program was the first experimental weathersatellite program.

TIROS 5 was lifted into orbit during the mission ‘Thor Delta | Tiros 5’, on board a Thor Delta space rocket.

The launch took place on June 19, 1962, 12:19 p.m. from Space Launch Complex 17A.

For more information about the launch, click the button.

Launch to space Thor Delta | Tiros 5
Thor Delta | Tiros 5

Agency: N/A

Status: Launch Successful

Launch date: June 19, 1962, 12:19 p.m. UTC

Rocket: Thor Delta

Launch pad: Space Launch Complex 17A

Location: Cape Canaveral SFS, FL, USA

...

Latest news about this satellite

There are no fresh news available about this satellite. Check back as we update our databases every day.


Newsletter sign-up

Weekly statistics, charts and insights to help you stay on top of the space industry.